| time (UTC) | temp F | wind direction | speed MPH | gust MPH | rain 1hr in | rain 24hr in | rain mn in | humidity % | barometer mb |
| 20260902191542 | 97 | 200 | 1.0 | 6.0 | 0.00 | 0.00 | 0.00 | 48 | 1014.5 |
| 20260902191033 | 97 | 200 | 0.0 | 6.0 | 0.00 | 0.00 | 0.00 | 48 | 1014.5 |
| 20260902190532 | 97 | 167 | 1.0 | 4.0 | 0.00 | 0.00 | 0.00 | 48 | 1014.7 |
| 20260902190032 | 97 | 155 | 2.0 | 5.0 | 0.00 | 0.00 | 0.00 | 48 | 1014.7 |
| 20260902185531 | 97 | 189 | 0.0 | 4.0 | 0.00 | 0.00 | 0.00 | 51 | 1014.8 |
| 20260902185031 | 96 | 189 | 0.0 | 2.0 | 0.00 | 0.00 | 0.00 | 50 | 1014.7 |
| 20260902184532 | 96 | 190 | 0.0 | 1.0 | 0.00 | 0.00 | 0.00 | 51 | 1014.7 |
| 20260902184030 | 96 | 190 | 0.0 | 1.0 | 0.00 | 0.00 | 0.00 | 53 | 1014.7 |
| 20260902183530 | 96 | 190 | 0.0 | 4.0 | 0.00 | 0.00 | 0.00 | 50 | 1014.8 |
| 20260902183032 | 96 | 190 | 1.0 | 5.0 | 0.00 | 0.00 | 0.00 | 48 | 1014.9 |
| 20260902182531 | 97 | 184 | 2.0 | 5.0 | 0.00 | 0.00 | 0.00 | 49 | 1015.0 |
| 20260902182031 | 97 | 188 | 1.0 | 3.0 | 0.00 | 0.00 | 0.00 | 48 | 1014.9 |
| 20260902181530 | 97 | 188 | 1.0 | 5.0 | 0.00 | 0.00 | 0.00 | 50 | 1014.9 |
| 20260902181028 | 97 | 184 | 2.0 | 5.0 | 0.00 | 0.00 | 0.00 | 50 | 1015.0 |
| 20260902180528 | 97 | 157 | 1.0 | 5.0 | 0.00 | 0.00 | 0.00 | 49 | 1015.0 |
| 20260902180028 | 97 | 223 | 0.0 | 5.0 | 0.00 | 0.00 | 0.00 | 49 | 1015.1 |
| 20260902175527 | 96 | 203 | 1.0 | 5.0 | 0.00 | 0.00 | 0.00 | 49 | 1015.1 |
| 20260902175026 | 96 | 201 | 1.0 | 5.0 | 0.00 | 0.00 | 0.00 | 49 | 1015.2 |
| 20260902174526 | 96 | 202 | 1.0 | 5.0 | 0.00 | 0.00 | 0.00 | 50 | 1015.3 |
| 20260902174027 | 95 | 54 | 0.0 | 5.0 | 0.00 | 0.00 | 0.00 | 53 | 1015.3 |
| 20260902173522 | 95 | 286 | 0.0 | 3.0 | 0.00 | 0.00 | 0.00 | 54 | 1015.4 |
| 20260902173031 | 95 | 285 | 0.0 | 3.0 | 0.00 | 0.00 | 0.00 | 55 | 1015.4 |
| 20260902172519 | 94 | 213 | 1.0 | 3.0 | 0.00 | 0.00 | 0.00 | 53 | 1015.4 |
| 20260902172020 | 94 | 211 | 1.0 | 3.0 | 0.00 | 0.00 | 0.00 | 57 | 1015.5 |
| 20260902171519 | 94 | 267 | 0.0 | 4.0 | 0.00 | 0.00 | 0.00 | 55 | 1015.6 |
| 20260902171019 | 94 | 263 | 1.0 | 4.0 | 0.00 | 0.00 | 0.00 | 55 | 1015.7 |
| 20260902170515 | 94 | 226 | 0.0 | 3.0 | 0.00 | 0.00 | 0.00 | 58 | 1015.8 |
| 20260902170015 | 94 | 219 | 0.0 | 4.0 | 0.00 | 0.00 | 0.00 | 54 | 1015.8 |
| 20260902165513 | 94 | 218 | 1.0 | 4.0 | 0.00 | 0.00 | 0.00 | 55 | 1015.8 |
| 20260902165013 | 93 | 183 | 0.0 | 3.0 | 0.00 | 0.00 | 0.00 | 57 | 1015.9 |
| 20260902164515 | 93 | 183 | 0.0 | 4.0 | 0.00 | 0.00 | 0.00 | 56 | 1015.9 |
| 20260902164010 | 93 | 182 | 1.0 | 4.0 | 0.00 | 0.00 | 0.00 | 57 | 1016.0 |
| 20260902163508 | 93 | 217 | 1.0 | 3.0 | 0.00 | 0.00 | 0.00 | 58 | 1016.1 |
| 20260902163008 | 92 | 221 | 0.0 | 4.0 | 0.00 | 0.00 | 0.00 | 57 | 1016.1 |
| 20260902162506 | 92 | 217 | 1.0 | 6.0 | 0.00 | 0.00 | 0.00 | 56 | 1016.2 |
| 20260902162006 | 92 | 209 | 1.0 | 6.0 | 0.00 | 0.00 | 0.00 | 56 | 1016.2 |
| 20260902161505 | 92 | 187 | 2.0 | 5.0 | 0.00 | 0.00 | 0.00 | 58 | 1016.2 |
| 20260902161002 | 92 | 289 | 0.0 | 6.0 | 0.00 | 0.00 | 0.00 | 58 | 1016.3 |
| 20260902160502 | 92 | 291 | 1.0 | 6.0 | 0.00 | 0.00 | 0.00 | 61 | 1016.3 |
| 20260902160110 | 92 | 236 | 0.0 | 5.0 | 0.00 | 0.00 | 0.00 | 61 | 1016.4 |
| 20260902155559 | 91 | 193 | 0.0 | 3.0 | 0.00 | 0.00 | 0.00 | 60 | 1016.4 |
| 20260902155100 | 91 | 213 | 0.0 | 4.0 | 0.00 | 0.00 | 0.00 | 60 | 1016.3 |
| 20260902154559 | 91 | 207 | 1.0 | 6.0 | 0.00 | 0.00 | 0.00 | 62 | 1016.4 |
| 20260902154057 | 90 | 222 | 2.0 | 6.0 | 0.00 | 0.00 | 0.00 | 62 | 1016.4 |
| 20260902153553 | 90 | 196 | 1.0 | 4.0 | 0.00 | 0.00 | 0.00 | 64 | 1016.4 |
| 20260902153052 | 89 | 204 | 1.0 | 7.0 | 0.00 | 0.00 | 0.00 | 64 | 1016.4 |
| 20260902152550 | 89 | 212 | 3.0 | 7.0 | 0.00 | 0.00 | 0.00 | 63 | 1016.4 |
| 20260902152049 | 89 | 214 | 1.0 | 5.0 | 0.00 | 0.00 | 0.00 | 66 | 1016.5 |
| 20260902151549 | 89 | 215 | 1.0 | 5.0 | 0.00 | 0.00 | 0.00 | 65 | 1016.5 |
| 20260902151047 | 88 | 214 | 1.0 | 5.0 | 0.00 | 0.00 | 0.00 | 65 | 1016.4 |
| 20260902150545 | 88 | 217 | 2.0 | 5.0 | 0.00 | 0.00 | 0.00 | 66 | 1016.4 |
| 20260902150045 | 88 | 180 | 2.0 | 5.0 | 0.00 | 0.00 | 0.00 | 66 | 1016.4 |
| 20260902145543 | 88 | 190 | 1.0 | 6.0 | 0.00 | 0.00 | 0.00 | 67 | 1016.4 |
| 20260902145042 | 87 | 204 | 1.0 | 6.0 | 0.00 | 0.00 | 0.00 | 68 | 1016.4 |
| 20260902144543 | 87 | 221 | 2.0 | 6.0 | 0.00 | 0.00 | 0.00 | 67 | 1016.4 |
| 20260902144040 | 87 | 227 | 2.0 | 4.0 | 0.00 | 0.00 | 0.00 | 68 | 1016.4 |
| 20260902143539 | 86 | 192 | 1.0 | 4.0 | 0.00 | 0.00 | 0.00 | 69 | 1016.4 |
| 20260902143037 | 86 | 205 | 1.0 | 5.0 | 0.00 | 0.00 | 0.00 | 69 | 1016.3 |
| 20260902142536 | 86 | 209 | 2.0 | 5.0 | 0.00 | 0.00 | 0.00 | 70 | 1016.3 |
| 20260902142037 | 85 | 180 | 1.0 | 4.0 | 0.00 | 0.00 | 0.00 | 70 | 1016.3 |
| 20260902141537 | 85 | 192 | 1.0 | 7.0 | 0.00 | 0.00 | 0.00 | 70 | 1016.4 |
| 20260902141032 | 84 | 203 | 2.0 | 7.0 | 0.00 | 0.00 | 0.00 | 71 | 1016.3 |
| 20260902140531 | 84 | 190 | 1.0 | 6.0 | 0.00 | 0.00 | 0.00 | 72 | 1016.4 |
| 20260902140029 | 84 | 190 | 2.0 | 6.0 | 0.00 | 0.00 | 0.00 | 72 | 1016.3 |
| 20260902135527 | 84 | 202 | 1.0 | 5.0 | 0.00 | 0.00 | 0.00 | 73 | 1016.3 |
| 20260902135026 | 83 | 200 | 1.0 | 4.0 | 0.00 | 0.00 | 0.00 | 73 | 1016.4 |
| 20260902134525 | 83 | 172 | 1.0 | 4.0 | 0.00 | 0.00 | 0.00 | 74 | 1016.5 |
| 20260902134023 | 82 | 171 | 0.0 | 4.0 | 0.00 | 0.00 | 0.00 | 75 | 1016.4 |
| 20260902133529 | 82 | 167 | 0.0 | 6.0 | 0.00 | 0.00 | 0.00 | 77 | 1016.4 |
| 20260902133021 | 82 | 167 | 1.0 | 5.0 | 0.00 | 0.00 | 0.00 | 78 | 1016.4 |
| 20260902132522 | 81 | 248 | 0.0 | 3.0 | 0.00 | 0.00 | 0.00 | 78 | 1016.4 |
| 20260902132018 | 81 | 248 | 0.0 | 2.0 | 0.00 | 0.00 | 0.00 | 79 | 1016.4 |
| 20260902131517 | 80 | 248 | 0.0 | 2.0 | 0.00 | 0.00 | 0.00 | 79 | 1016.4 |
| 20260902131016 | 80 | 248 | 0.0 | 2.0 | 0.00 | 0.00 | 0.00 | 80 | 1016.3 |
| 20260902130517 | 79 | 248 | 0.0 | 1.0 | 0.00 | 0.00 | 0.00 | 81 | 1016.2 |
| 20260902130028 | 79 | 248 | 0.0 | 0.0 | 0.00 | 0.00 | 0.00 | 81 | 1016.2 |
| 20260902125513 | 79 | 248 | 0.0 | 0.0 | 0.00 | 0.00 | 0.00 | 82 | 1016.2 |
| 20260902125012 | 78 | 248 | 0.0 | 0.0 | 0.00 | 0.00 | 0.00 | 83 | 1016.2 |
| 20260902124510 | 78 | 248 | 0.0 | 0.0 | 0.00 | 0.00 | 0.00 | 83 | 1016.2 |
| 20260902124009 | 77 | 248 | 0.0 | 0.0 | 0.00 | 0.00 | 0.00 | 84 | 1016.1 |
| 20260902123508 | 76 | 248 | 0.0 | 0.0 | 0.00 | 0.00 | 0.00 | 85 | 1016.1 |
| 20260902123020 | 76 | 248 | 0.0 | 0.0 | 0.00 | 0.00 | 0.00 | 86 | 1016.0 |
| 20260902122506 | 76 | 248 | 0.0 | 0.0 | 0.00 | 0.00 | 0.00 | 86 | 1016.0 |
| 20260902122005 | 76 | 248 | 0.0 | 0.0 | 0.00 | 0.00 | 0.00 | 86 | 1016.0 |
| 20260902121506 | 75 | 248 | 0.0 | 0.0 | 0.00 | 0.00 | 0.00 | 86 | 1015.9 |
| 20260902121004 | 75 | 248 | 0.0 | 0.0 | 0.00 | 0.00 | 0.00 | 87 | 1015.9 |
| 20260902120504 | 75 | 248 | 0.0 | 0.0 | 0.00 | 0.00 | 0.00 | 87 | 1015.7 |
| 20260902120004 | 75 | 248 | 0.0 | 0.0 | 0.00 | 0.00 | 0.00 | 88 | 1015.7 |
| 20260902115503 | 75 | 248 | 0.0 | 0.0 | 0.00 | 0.00 | 0.00 | 87 | 1015.7 |
| 20260902115004 | 75 | 248 | 0.0 | 0.0 | 0.00 | 0.00 | 0.00 | 88 | 1015.6 |
| 20260902114619 | 75 | 248 | 0.0 | 0.0 | 0.00 | 0.00 | 0.00 | 88 | 1015.5 |
| 20260902114103 | 75 | 248 | 0.0 | 0.0 | 0.00 | 0.00 | 0.00 | 88 | 1015.6 |
| 20260902113600 | 75 | 248 | 0.0 | 0.0 | 0.00 | 0.00 | 0.00 | 88 | 1015.6 |
| 20260902113058 | 75 | 248 | 0.0 | 0.0 | 0.00 | 0.00 | 0.00 | 88 | 1015.5 |
| 20260902112557 | 75 | 248 | 0.0 | 0.0 | 0.00 | 0.00 | 0.00 | 87 | 1015.5 |
| 20260902112057 | 75 | 248 | 0.0 | 0.0 | 0.00 | 0.00 | 0.00 | 88 | 1015.5 |
| 20260902111557 | 75 | 248 | 0.0 | 0.0 | 0.00 | 0.00 | 0.00 | 88 | 1015.4 |
| 20260902111057 | 75 | 248 | 0.0 | 0.0 | 0.00 | 0.00 | 0.00 | 88 | 1015.4 |
| 20260902110555 | 75 | 248 | 0.0 | 0.0 | 0.00 | 0.00 | 0.00 | 88 | 1015.4 |
| 20260902105553 | 75 | 248 | 0.0 | 0.0 | 0.00 | 0.00 | 0.00 | 88 | 1015.2 |
| 20260902105053 | 75 | 248 | 0.0 | 0.0 | 0.00 | 0.00 | 0.00 | 88 | 1015.1 |
| 20260902104557 | 75 | 248 | 0.0 | 0.0 | 0.00 | 0.00 | 0.00 | 87 | 1015.1 |
| 20260902104052 | 76 | 248 | 0.0 | 0.0 | 0.00 | 0.00 | 0.00 | 88 | 1015.1 |
| 20260902103551 | 76 | 248 | 0.0 | 0.0 | 0.00 | 0.00 | 0.00 | 88 | 1015.1 |
| 20260902103101 | 76 | 248 | 0.0 | 0.0 | 0.00 | 0.00 | 0.00 | 88 | 1015.0 |
| 20260902102551 | 76 | 248 | 0.0 | 0.0 | 0.00 | 0.00 | 0.00 | 88 | 1015.0 |
| 20260902102050 | 76 | 248 | 0.0 | 0.0 | 0.00 | 0.00 | 0.00 | 88 | 1014.9 |
| 20260902101550 | 76 | 248 | 0.0 | 0.0 | 0.00 | 0.00 | 0.00 | 87 | 1014.9 |
| 20260902101050 | 76 | 248 | 0.0 | 0.0 | 0.00 | 0.00 | 0.00 | 87 | 1015.0 |
| 20260902100548 | 76 | 248 | 0.0 | 0.0 | 0.00 | 0.00 | 0.00 | 87 | 1015.0 |
| 20260902100048 | 76 | 248 | 0.0 | 0.0 | 0.00 | 0.00 | 0.00 | 87 | 1014.9 |
| 20260902095547 | 76 | 248 | 0.0 | 0.0 | 0.00 | 0.00 | 0.00 | 87 | 1014.9 |
| 20260902095046 | 76 | 248 | 0.0 | 0.0 | 0.00 | 0.00 | 0.00 | 87 | 1014.8 |
| 20260902094546 | 76 | 248 | 0.0 | 0.0 | 0.00 | 0.00 | 0.00 | 86 | 1014.7 |
| 20260902094046 | 76 | 248 | 0.0 | 0.0 | 0.00 | 0.00 | 0.00 | 86 | 1014.7 |
| 20260902093545 | 76 | 248 | 0.0 | 0.0 | 0.00 | 0.00 | 0.00 | 86 | 1014.8 |
| 20260902093045 | 76 | 248 | 0.0 | 0.0 | 0.00 | 0.00 | 0.00 | 86 | 1014.8 |
| 20260902092545 | 76 | 248 | 0.0 | 0.0 | 0.00 | 0.00 | 0.00 | 85 | 1014.8 |
| 20260902092045 | 76 | 248 | 0.0 | 0.0 | 0.00 | 0.00 | 0.00 | 85 | 1014.9 |
| 20260902091544 | 76 | 248 | 0.0 | 0.0 | 0.00 | 0.00 | 0.00 | 85 | 1014.8 |
| 20260902091045 | 77 | 248 | 0.0 | 0.0 | 0.00 | 0.00 | 0.00 | 85 | 1014.7 |
| 20260902090543 | 77 | 248 | 0.0 | 0.0 | 0.00 | 0.00 | 0.00 | 85 | 1014.7 |
| 20260902090043 | 77 | 248 | 0.0 | 0.0 | 0.00 | 0.00 | 0.00 | 85 | 1014.7 |
| 20260902085543 | 77 | 248 | 0.0 | 0.0 | 0.00 | 0.00 | 0.00 | 84 | 1014.6 |
| 20260902085041 | 77 | 248 | 0.0 | 0.0 | 0.00 | 0.00 | 0.00 | 84 | 1014.5 |
| 20260902084541 | 77 | 248 | 0.0 | 0.0 | 0.00 | 0.00 | 0.00 | 84 | 1014.5 |
| 20260902084041 | 77 | 248 | 0.0 | 0.0 | 0.00 | 0.00 | 0.00 | 84 | 1014.6 |
| 20260902083540 | 77 | 248 | 0.0 | 0.0 | 0.00 | 0.00 | 0.00 | 84 | 1014.5 |
| 20260902083042 | 77 | 248 | 0.0 | 0.0 | 0.00 | 0.00 | 0.00 | 84 | 1014.7 |
| 20260902082539 | 77 | 248 | 0.0 | 0.0 | 0.00 | 0.00 | 0.00 | 83 | 1014.6 |
| 20260902082039 | 77 | 248 | 0.0 | 0.0 | 0.00 | 0.00 | 0.00 | 83 | 1014.6 |
| 20260902081544 | 78 | 248 | 0.0 | 0.0 | 0.00 | 0.00 | 0.00 | 83 | 1014.6 |
| 20260902081037 | 78 | 248 | 0.0 | 0.0 | 0.00 | 0.00 | 0.00 | 82 | 1014.6 |
| 20260902080537 | 78 | 248 | 0.0 | 0.0 | 0.00 | 0.00 | 0.00 | 82 | 1014.6 |
| 20260902080047 | 78 | 248 | 0.0 | 0.0 | 0.00 | 0.00 | 0.00 | 82 | 1014.6 |
| 20260902075535 | 78 | 248 | 0.0 | 0.0 | 0.00 | 0.00 | 0.00 | 82 | 1014.6 |
| 20260902075036 | 79 | 248 | 0.0 | 0.0 | 0.00 | 0.00 | 0.00 | 81 | 1014.6 |
| 20260902074535 | 79 | 248 | 0.0 | 1.0 | 0.00 | 0.00 | 0.00 | 81 | 1014.5 |
| 20260902074035 | 79 | 248 | 0.0 | 1.0 | 0.00 | 0.00 | 0.00 | 81 | 1014.5 |
| 20260902073534 | 79 | 248 | 0.0 | 0.0 | 0.00 | 0.00 | 0.00 | 81 | 1014.5 |
| 20260902073034 | 79 | 248 | 0.0 | 2.0 | 0.00 | 0.00 | 0.00 | 81 | 1014.4 |
| 20260902072536 | 78 | 248 | 0.0 | 2.0 | 0.00 | 0.00 | 0.00 | 82 | 1014.5 |
| 20260902072034 | 78 | 248 | 0.0 | 0.0 | 0.00 | 0.00 | 0.00 | 82 | 1014.4 |
| 20260902071539 | 78 | 248 | 0.0 | 2.0 | 0.00 | 0.00 | 0.00 | 82 | 1014.5 |
| 20260902071034 | 78 | 248 | 0.0 | 2.0 | 0.00 | 0.00 | 0.00 | 82 | 1014.5 |
| 20260902070533 | 78 | 248 | 0.0 | 1.0 | 0.00 | 0.00 | 0.00 | 82 | 1014.5 |
| 20260902070033 | 78 | 248 | 0.0 | 0.0 | 0.00 | 0.00 | 0.00 | 82 | 1014.5 |
| 20260902065532 | 78 | 248 | 0.0 | 0.0 | 0.00 | 0.00 | 0.00 | 82 | 1014.5 |
| 20260902065031 | 79 | 248 | 0.0 | 0.0 | 0.00 | 0.00 | 0.00 | 81 | 1014.5 |
| 20260902064530 | 79 | 248 | 0.0 | 0.0 | 0.00 | 0.00 | 0.00 | 81 | 1014.5 |
| 20260902064029 | 79 | 248 | 0.0 | 0.0 | 0.00 | 0.00 | 0.00 | 81 | 1014.5 |
| 20260902063532 | 79 | 248 | 0.0 | 0.0 | 0.00 | 0.00 | 0.00 | 80 | 1014.5 |
| 20260902063029 | 79 | 248 | 0.0 | 0.0 | 0.00 | 0.00 | 0.00 | 80 | 1014.4 |
| 20260902062529 | 80 | 248 | 0.0 | 0.0 | 0.00 | 0.00 | 0.00 | 80 | 1014.5 |
| 20260902062029 | 80 | 248 | 0.0 | 0.0 | 0.00 | 0.00 | 0.00 | 79 | 1014.4 |
| 20260902061529 | 80 | 248 | 0.0 | 0.0 | 0.00 | 0.00 | 0.00 | 79 | 1014.4 |
| 20260902061033 | 80 | 248 | 0.0 | 1.0 | 0.00 | 0.00 | 0.00 | 79 | 1014.4 |
| 20260902060530 | 80 | 248 | 0.0 | 2.0 | 0.00 | 0.00 | 0.00 | 79 | 1014.4 |
| 20260902060028 | 80 | 248 | 0.0 | 2.0 | 0.00 | 0.00 | 0.00 | 79 | 1014.5 |
| 20260902055527 | 80 | 248 | 0.0 | 1.0 | 0.00 | 0.00 | 0.00 | 79 | 1014.5 |
| 20260902055027 | 80 | 248 | 0.0 | 1.0 | 0.00 | 0.00 | 0.00 | 80 | 1014.5 |
| 20260902054531 | 79 | 249 | 0.0 | 1.0 | 0.00 | 0.00 | 0.00 | 81 | 1014.5 |
| 20260902054025 | 79 | 249 | 0.0 | 0.0 | 0.00 | 0.00 | 0.00 | 81 | 1014.4 |
| 20260902053525 | 79 | 249 | 0.0 | 0.0 | 0.00 | 0.00 | 0.00 | 82 | 1014.4 |
| 20260902053024 | 79 | 249 | 0.0 | 0.0 | 0.00 | 0.00 | 0.00 | 82 | 1014.4 |
| 20260902052523 | 80 | 249 | 0.0 | 0.0 | 0.00 | 0.00 | 0.00 | 82 | 1014.4 |
| 20260902052022 | 80 | 249 | 0.0 | 0.0 | 0.00 | 0.00 | 0.00 | 81 | 1014.4 |
| 20260902051525 | 80 | 249 | 0.0 | 0.0 | 0.00 | 0.00 | 0.00 | 81 | 1014.3 |
| 20260902051022 | 80 | 249 | 0.0 | 0.0 | 0.00 | 0.00 | 0.00 | 81 | 1014.3 |
| 20260902050523 | 80 | 249 | 0.0 | 0.0 | 0.00 | 0.00 | 0.00 | 81 | 1014.3 |
| 20260902050021 | 80 | 249 | 0.0 | 0.0 | 0.00 | 0.00 | 0.00 | 81 | 1014.3 |
| 20260902045519 | 80 | 249 | 0.0 | 0.0 | 0.00 | 0.00 | 0.00 | 81 | 1014.2 |
| 20260902045020 | 80 | 249 | 0.0 | 0.0 | 0.00 | 0.00 | 0.00 | 81 | 1014.2 |
| 20260902044520 | 80 | 249 | 0.0 | 0.0 | 0.00 | 0.00 | 0.00 | 81 | 1014.2 |
| 20260902044020 | 80 | 249 | 0.0 | 0.0 | 0.00 | 0.00 | 0.00 | 81 | 1014.3 |
| 20260902043519 | 80 | 249 | 0.0 | 0.0 | 0.00 | 0.00 | 0.00 | 81 | 1014.2 |
| 20260902043019 | 80 | 249 | 0.0 | 0.0 | 0.00 | 0.00 | 0.00 | 81 | 1014.2 |
| 20260902042519 | 81 | 249 | 0.0 | 0.0 | 0.00 | 0.00 | 0.00 | 80 | 1014.2 |
| 20260902042019 | 81 | 249 | 0.0 | 0.0 | 0.00 | 0.00 | 0.00 | 80 | 1014.2 |
| 20260902041519 | 81 | 249 | 0.0 | 0.0 | 0.00 | 0.00 | 0.00 | 80 | 1014.3 |
| 20260902041019 | 81 | 249 | 0.0 | 0.0 | 0.00 | 0.00 | 0.00 | 80 | 1014.2 |
| 20260902040519 | 81 | 249 | 0.0 | 0.0 | 0.00 | 0.00 | 0.00 | 80 | 1014.2 |
| 20260902040021 | 81 | 249 | 0.0 | 0.0 | 0.00 | 0.00 | 0.00 | 80 | 1014.3 |
| 20260902035518 | 81 | 249 | 0.0 | 0.0 | 0.00 | 0.00 | 0.00 | 80 | 1014.2 |
| 20260902035018 | 81 | 249 | 0.0 | 0.0 | 0.00 | 0.00 | 0.00 | 82 | 1014.3 |
| 20260902034518 | 81 | 249 | 0.0 | 0.0 | 0.00 | 0.00 | 0.00 | 81 | 1014.3 |
| 20260902034017 | 81 | 249 | 0.0 | 0.0 | 0.00 | 0.00 | 0.00 | 80 | 1014.4 |
| 20260902033517 | 81 | 249 | 0.0 | 0.0 | 0.00 | 0.00 | 0.00 | 81 | 1014.3 |
| 20260902033018 | 81 | 249 | 0.0 | 0.0 | 0.00 | 0.00 | 0.00 | 80 | 1014.4 |
| 20260902032520 | 81 | 249 | 0.0 | 0.0 | 0.00 | 0.00 | 0.00 | 80 | 1014.4 |
| 20260902032023 | 81 | 249 | 0.0 | 0.0 | 0.00 | 0.00 | 0.00 | 80 | 1014.5 |
| 20260902031517 | 81 | 249 | 0.0 | 0.0 | 0.00 | 0.00 | 0.00 | 80 | 1014.6 |
| 20260902031017 | 81 | 249 | 0.0 | 0.0 | 0.00 | 0.00 | 0.00 | 80 | 1014.6 |
| 20260902030517 | 82 | 249 | 0.0 | 0.0 | 0.00 | 0.00 | 0.00 | 80 | 1014.6 |
| 20260902030019 | 82 | 249 | 0.0 | 0.0 | 0.00 | 0.00 | 0.00 | 80 | 1014.5 |
| 20260902025519 | 82 | 249 | 0.0 | 0.0 | 0.00 | 0.00 | 0.00 | 80 | 1014.5 |
| 20260902025017 | 82 | 249 | 0.0 | 0.0 | 0.00 | 0.00 | 0.00 | 80 | 1014.5 |
| 20260902024517 | 82 | 249 | 0.0 | 0.0 | 0.00 | 0.00 | 0.00 | 80 | 1014.5 |
| 20260902024016 | 82 | 249 | 0.0 | 0.0 | 0.00 | 0.00 | 0.00 | 80 | 1014.5 |
| 20260902023516 | 82 | 249 | 0.0 | 0.0 | 0.00 | 0.00 | 0.00 | 79 | 1014.5 |
| 20260902023034 | 83 | 249 | 0.0 | 0.0 | 0.00 | 0.00 | 0.00 | 79 | 1014.5 |
| 20260902022516 | 83 | 249 | 0.0 | 0.0 | 0.00 | 0.00 | 0.00 | 79 | 1014.5 |
| 20260902022019 | 83 | 249 | 0.0 | 0.0 | 0.00 | 0.00 | 0.00 | 79 | 1014.4 |
| 20260902021527 | 83 | 249 | 0.0 | 0.0 | 0.00 | 0.00 | 0.00 | 79 | 1014.4 |
| 20260902021019 | 83 | 251 | 0.0 | 0.0 | 0.00 | 0.00 | 0.00 | 79 | 1014.4 |
| 20260902020517 | 83 | 251 | 0.0 | 0.0 | 0.00 | 0.00 | 0.00 | 79 | 1014.4 |
| 20260902020016 | 83 | 251 | 0.0 | 0.0 | 0.00 | 0.00 | 0.00 | 78 | 1014.4 |
| 20260902015516 | 84 | 251 | 0.0 | 0.0 | 0.00 | 0.00 | 0.00 | 78 | 1014.4 |
| 20260902015015 | 84 | 251 | 0.0 | 0.0 | 0.00 | 0.00 | 0.00 | 77 | 1014.4 |
| 20260902014515 | 84 | 251 | 0.0 | 0.0 | 0.00 | 0.00 | 0.00 | 76 | 1014.3 |
| 20260902014014 | 85 | 251 | 0.0 | 0.0 | 0.00 | 0.00 | 0.00 | 75 | 1014.3 |
| 20260902013514 | 85 | 251 | 0.0 | 0.0 | 0.00 | 0.00 | 0.00 | 75 | 1014.2 |
| 20260902013017 | 85 | 251 | 0.0 | 0.0 | 0.00 | 0.00 | 0.00 | 75 | 1014.2 |
| 20260902012514 | 85 | 251 | 0.0 | 0.0 | 0.00 | 0.00 | 0.00 | 74 | 1014.2 |
| 20260902012017 | 86 | 251 | 0.0 | 0.0 | 0.00 | 0.00 | 0.00 | 74 | 1014.1 |
| 20260902011514 | 86 | 251 | 0.0 | 0.0 | 0.00 | 0.00 | 0.00 | 73 | 1014.0 |
| 20260902011014 | 86 | 251 | 0.0 | 0.0 | 0.00 | 0.00 | 0.00 | 72 | 1014.0 |
| 20260902010513 | 87 | 251 | 0.0 | 0.0 | 0.00 | 0.00 | 0.00 | 72 | 1013.9 |
| 20260902010014 | 87 | 251 | 0.0 | 0.0 | 0.00 | 0.00 | 0.00 | 71 | 1013.9 |
| 20260902005514 | 87 | 251 | 0.0 | 0.0 | 0.00 | 0.00 | 0.00 | 71 | 1013.8 |
| 20260902005013 | 87 | 251 | 0.0 | 0.0 | 0.00 | 0.00 | 0.00 | 70 | 1013.9 |
| 20260902004515 | 88 | 251 | 0.0 | 0.0 | 0.00 | 0.00 | 0.00 | 70 | 1013.8 |
| 20260902004012 | 88 | 251 | 0.0 | 0.0 | 0.00 | 0.00 | 0.00 | 70 | 1013.8 |
| 20260902003512 | 88 | 251 | 0.0 | 0.0 | 0.00 | 0.00 | 0.00 | 69 | 1013.7 |
| 20260902003015 | 89 | 251 | 0.0 | 0.0 | 0.00 | 0.00 | 0.00 | 68 | 1013.9 |
| 20260902002512 | 89 | 251 | 0.0 | 0.0 | 0.00 | 0.00 | 0.00 | 68 | 1013.9 |
| 20260902002017 | 90 | 251 | 0.0 | 0.0 | 0.00 | 0.00 | 0.00 | 68 | 1013.8 |
| 20260902001512 | 90 | 251 | 0.0 | 0.0 | 0.00 | 0.00 | 0.00 | 67 | 1013.9 |
| 20260902001011 | 90 | 251 | 0.0 | 0.0 | 0.00 | 0.00 | 0.00 | 66 | 1013.8 |
| 20260902000511 | 91 | 251 | 0.0 | 0.0 | 0.00 | 0.00 | 0.00 | 64 | 1013.7 |
| 20260902000014 | 91 | 251 | 0.0 | 1.0 | 0.00 | 0.00 | 0.00 | 64 | 1013.9 |
| 20260901235510 | 91 | 252 | 0.0 | 1.0 | 0.00 | 0.00 | 0.00 | 63 | 1013.9 |
| 20260901235010 | 92 | 252 | 0.0 | 0.0 | 0.00 | 0.00 | 0.00 | 65 | 1013.9 |
| 20260901234510 | 92 | 252 | 0.0 | 0.0 | 0.00 | 0.00 | 0.00 | 63 | 1014.0 |
| 20260901234010 | 93 | 252 | 0.0 | 0.0 | 0.00 | 0.00 | 0.00 | 66 | 1014.0 |
| 20260901233510 | 93 | 252 | 0.0 | 0.0 | 0.00 | 0.00 | 0.00 | 67 | 1014.1 |
| 20260901233010 | 93 | 252 | 0.0 | 0.0 | 0.00 | 0.00 | 0.00 | 64 | 1014.0 |
| 20260901232509 | 93 | 252 | 0.0 | 0.0 | 0.00 | 0.00 | 0.00 | 65 | 1014.0 |
| 20260901232009 | 94 | 252 | 0.0 | 0.0 | 0.00 | 0.00 | 0.00 | 63 | 1014.1 |
| 20260901231510 | 94 | 252 | 0.0 | 1.0 | 0.00 | 0.00 | 0.00 | 58 | 1014.1 |
| 20260901231009 | 94 | 252 | 0.0 | 0.0 | 0.00 | 0.00 | 0.00 | 58 | 1014.1 |
| 20260901230508 | 95 | 252 | 0.0 | 0.0 | 0.00 | 0.00 | 0.00 | 58 | 1014.1 |
| 20260901230009 | 95 | 252 | 0.0 | 0.0 | 0.00 | 0.00 | 0.00 | 57 | 1014.1 |
| 20260901225508 | 95 | 252 | 0.0 | 2.0 | 0.00 | 0.00 | 0.00 | 53 | 1014.1 |
| 20260901225009 | 95 | 252 | 0.0 | 2.0 | 0.00 | 0.00 | 0.00 | 56 | 1014.1 |
| 20260901224508 | 95 | 252 | 0.0 | 2.0 | 0.00 | 0.00 | 0.00 | 55 | 1014.1 |
| 20260901224008 | 94 | 252 | 0.0 | 2.0 | 0.00 | 0.00 | 0.00 | 54 | 1014.1 |
| 20260901223507 | 94 | 252 | 0.0 | 2.0 | 0.00 | 0.00 | 0.00 | 54 | 1014.1 |
| 20260901223015 | 94 | 252 | 0.0 | 1.0 | 0.00 | 0.00 | 0.00 | 56 | 1014.0 |
| 20260901222508 | 94 | 252 | 0.0 | 0.0 | 0.00 | 0.00 | 0.00 | 56 | 1014.0 |
| 20260901222009 | 94 | 252 | 0.0 | 0.0 | 0.00 | 0.00 | 0.00 | 57 | 1014.0 |
| 20260901221507 | 94 | 252 | 0.0 | 1.0 | 0.00 | 0.00 | 0.00 | 61 | 1014.1 |
| 20260901221007 | 94 | 252 | 0.0 | 1.0 | 0.00 | 0.00 | 0.00 | 62 | 1014.1 |
| 20260901220506 | 94 | 252 | 0.0 | 0.0 | 0.00 | 0.00 | 0.00 | 60 | 1014.0 |
| 20260901220006 | 94 | 252 | 0.0 | 0.0 | 0.00 | 0.00 | 0.00 | 57 | 1013.9 |
| 20260901215506 | 94 | 252 | 0.0 | 0.0 | 0.00 | 0.00 | 0.00 | 56 | 1013.9 |
| 20260901215004 | 94 | 252 | 0.0 | 0.0 | 0.00 | 0.00 | 0.00 | 56 | 1013.9 |
| 20260901214505 | 95 | 252 | 0.0 | 2.0 | 0.00 | 0.00 | 0.00 | 55 | 1013.9 |
| 20260901214008 | 95 | 252 | 0.0 | 2.0 | 0.00 | 0.00 | 0.00 | 58 | 1014.0 |
| 20260901213504 | 95 | 252 | 0.0 | 1.0 | 0.00 | 0.00 | 0.00 | 55 | 1014.0 |
| 20260901213006 | 95 | 252 | 0.0 | 0.0 | 0.00 | 0.00 | 0.00 | 59 | 1014.0 |
| 20260901212503 | 95 | 252 | 0.0 | 0.0 | 0.00 | 0.00 | 0.00 | 54 | 1014.1 |
| 20260901212006 | 95 | 252 | 0.0 | 0.0 | 0.00 | 0.00 | 0.00 | 52 | 1014.1 |
| 20260901211503 | 96 | 252 | 0.0 | 3.0 | 0.00 | 0.00 | 0.00 | 53 | 1014.1 |
| 20260901211003 | 96 | 252 | 0.0 | 3.0 | 0.00 | 0.00 | 0.00 | 49 | 1014.1 |
| 20260901210503 | 96 | 252 | 0.0 | 4.0 | 0.00 | 0.00 | 0.00 | 51 | 1014.1 |
| 20260901210002 | 97 | 252 | 1.0 | 4.0 | 0.00 | 0.00 | 0.00 | 49 | 1014.2 |
| 20260901205502 | 97 | 251 | 1.0 | 3.0 | 0.00 | 0.00 | 0.00 | 50 | 1014.3 |
| 20260901205100 | 97 | 251 | 1.0 | 3.0 | 0.00 | 0.00 | 0.00 | 50 | 1014.3 |
| 20260901204610 | 96 | 255 | 0.0 | 0.0 | 0.00 | 0.00 | 0.00 | 53 | 1014.3 |
| 20260901204059 | 96 | 264 | 0.0 | 0.0 | 0.00 | 0.00 | 0.00 | 52 | 1014.4 |
| 20260901203603 | 96 | 264 | 0.0 | 0.0 | 0.00 | 0.00 | 0.00 | 51 | 1014.5 |
| 20260901203110 | 96 | 266 | 0.0 | 2.0 | 0.00 | 0.00 | 0.00 | 50 | 1014.4 |
| 20260901202558 | 97 | 267 | 0.0 | 0.0 | 0.00 | 0.00 | 0.00 | 50 | 1014.5 |
| 20260901202058 | 97 | 271 | 0.0 | 0.0 | 0.00 | 0.00 | 0.00 | 49 | 1014.5 |
| 20260901201559 | 96 | 273 | 0.0 | 0.0 | 0.00 | 0.00 | 0.00 | 51 | 1014.5 |
| 20260901201057 | 96 | 273 | 0.0 | 0.0 | 0.00 | 0.00 | 0.00 | 51 | 1014.5 |
| 20260901200557 | 97 | 273 | 0.0 | 0.0 | 0.00 | 0.00 | 0.00 | 52 | 1014.6 |
| 20260901200058 | 97 | 273 | 0.0 | 0.0 | 0.00 | 0.00 | 0.00 | 50 | 1014.6 |
| 20260901195558 | 97 | 279 | 0.0 | 0.0 | 0.00 | 0.00 | 0.00 | 51 | 1014.7 |
| 20260901195056 | 97 | 287 | 0.0 | 0.0 | 0.00 | 0.00 | 0.00 | 53 | 1014.7 |
| 20260901194555 | 96 | 288 | 0.0 | 0.0 | 0.00 | 0.00 | 0.00 | 52 | 1014.7 |
| 20260901194053 | 96 | 355 | 0.0 | 0.0 | 0.00 | 0.00 | 0.00 | 54 | 1014.7 |
| 20260901193551 | 96 | 348 | 0.0 | 0.0 | 0.00 | 0.00 | 0.00 | 54 | 1014.7 |
| 20260901193101 | 95 | 348 | 0.0 | 0.0 | 0.00 | 0.00 | 0.00 | 52 | 1014.8 |
| 20260901192550 | 95 | 348 | 0.0 | 0.0 | 0.00 | 0.00 | 0.00 | 54 | 1014.9 |
| 20260901192054 | 95 | 348 | 0.0 | 5.0 | 0.00 | 0.00 | 0.00 | 56 | 1015.0 |